Location: Aubervilles
(48.9167°N, 2.3833°E)
Time: 09:36:03
(UTC+00:00)

Meteor 2-12 Rocket - Pass Details

Date: 03 February 2023
Orbit: 935 x 958 km, 82.5° (Epoch: 28 March)

Event Time Altitude Azimuth Distance (km) Brightness Sun altitude
Rises 18:16:44 0° 350° (N) 3,624 7.5 -14.3°
Reaches altitude 10° 18:19:15 10° 352° (N) 2,672 6.8 -14.7°
Maximum altitude 18:25:22 81° 80° (E) 957 4.3 -15.7°
Drops below altitude 10° 18:31:25 10° 168° (SSE) 2,642 6.7 -16.7°
Sets 18:33:53 0° 169° (S) 3,580 7.4 -17.1°
